This is the latest recevied weather packets stored in our database for station/object N3TJJ-11. If no packets are shown the sender has not sent any weather packets the latest 10 day(s).
| Time | Temp. | Humidity | Pressure | Rain* | Wind** | Luminosity | Snow |
|---|---|---|---|---|---|---|---|
| 1777922626 | 20.56° C | 42% | 1009.2 hPa | 0 mm | - | - | - |
| 1777922027 | 20.56° C | 40% | 1009.3 hPa | 0 mm | - | - | - |
| 1777921906 | 20.56° C | 42% | 1009.2 hPa | 0 mm | - | - | - |
| 1777921428 | 20° C | 39% | 1009.3 hPa | 0 mm | - | - | - |
| 1777921186 | 20.56° C | 40% | 1009.5 hPa | 0 mm | - | - | - |
| 1777920829 | 20.56° C | 39% | 1009.5 hPa | 0 mm | - | - | - |
| 1777920466 | 20° C | 42% | 1009.6 hPa | 0 mm | - | - | - |
| 1777920227 | 20° C | 39% | 1009.6 hPa | 0 mm | - | - | - |
| 1777919746 | 20° C | 40% | 1009.6 hPa | 0 mm | - | - | - |
| 1777919627 | 20° C | 42% | 1009.7 hPa | 0 mm | - | - | - |
| 1777919026 | 19.44° C | 42% | 1009.7 hPa | 0 mm | - | - | - |
| 1777918427 | 19.44° C | 41% | 1009.9 hPa | 0 mm | - | - | - |
| 1777918306 | 19.44° C | 40% | 1009.9 hPa | 0 mm | - | - | - |
| 1777917827 | 19.44° C | 42% | 1010 hPa | 0 mm | - | - | - |
| 1777917586 | 19.44° C | 42% | 1010.1 hPa | 0 mm | - | - | - |
| 1777917227 | 18.89° C | 41% | 1010.3 hPa | 0 mm | - | - | - |
| 1777916866 | 18.89° C | 41% | 1010.3 hPa | 0 mm | - | - | - |
| 1777916628 | 18.89° C | 44% | 1010.4 hPa | 0 mm | - | - | - |
| 1777916146 | 18.89° C | 42% | 1010.4 hPa | 0 mm | - | - | - |
| 1777916027 | 18.89° C | 43% | 1010.5 hPa | 0 mm | - | - | - |
| 1777915426 | 18.33° C | 43% | 1010.6 hPa | 0 mm | - | - | - |
| 1777914828 | 18.33° C | 42% | 1010.8 hPa | 0 mm | - | - | - |
| 1777914706 | 18.33° C | 40% | 1010.9 hPa | 0 mm | - | - | - |
| 1777914227 | 18.33° C | 41% | 1010.9 hPa | 0 mm | - | - | - |
| 1777913986 | 18.33° C | 45% | 1011 hPa | 0 mm | - | - | - |
* Rain latest hour (hover to see other rain measurements)
** Current wind speed in m/s (hover to see current wind gust speed)